Temp
21 21 20 20 20 20 20 20 20 20 21 21 21 21 21 21 21 21 21 21 22 21 20 20 19 20 20 20 20 20 19 19 19 19 19 19 19 19 19 19 19 19 19 19 19 19 19 19 20 19 19 19 18 18 18 18 18 18 18 18 18 18 18 18 17 17 17 17 17 17 17 17 17 17 17 16 16 16 16 16 16 17 16 16 16
21 20 20 20 20 20 19 20 20 20 21 21 21 21 21 21 21 21 21 21 21 21 20 20 20 20 20 20 20 19 19 19 19 19 19 19 19 19 19 20 19 19 19 19 19 19 19 19 19 19 19 18 18 18 18 18 18 18 18 18 18 18 18 17 17 17 17 17 17 17 17 17 17 17 17 17 16 15 16 16 17 17 17 16 16
21 20 20 20 20 20 19 20 20 20 20 21 21 21 21 21 21 21 21 21 21 20 20 20 20 20 20 19 19 19 19 19 19 19 19 19 19 20 20 20 19 19 19 19 19 19 19 19 19 18 19 18 18 18 18 18 18 18 18 18 17 17 17 17 17 17 17 17 17 16 16 16 17 17 17 17 16 15 16 16 16 16 16 16 16
21 19 20 20 20 20 19 20 20 20 20 21 21 21 21 21 21 21 21 21 20 20 20 20 19 19 19 19 19 19 19 19 19 19 19 19 19 20 20 20 19 19 19 19 19 19 19 19 19 18 18 18 18 18 18 18 17 17 17 17 17 17 17 17 17 17 17 17 17 17 17 16 16 17 17 16 16 15 16 16 15 15 15 15 16
21 19 20 20 19 20 19 19 20 20 20 20 21 21 21 21 21 21 21 21 20 20 19 19 19 19 19 19 19 19 20 20 20 19 19 19 19 20 20 20 20 20 20 19 19 18 18 19 19 18 18 18 18 18 18 18 17 17 18 18 17 17 17 17 17 17 17 16 17 17 17 17 16 16 16 16 16 15 16 16 15 15 15 15 15
21 19 20 20 20 20 20 20 20 20 20 20 20 21 21 21 21 21 21 21 20 20 20 19 19 19 19 19 19 20 20 20 19 19 19 19 19 19 19 19 20 19 19 19 18 18 18 19 19 18 18 18 18 18 17 17 17 17 17 17 17 17 17 17 17 17 16 16 16 17 17 17 17 16 16 16 16 15 16 16 16 15 15 15 15
21 19 19 20 20 19 19 19 20 20 20 20 20 20 21 21 21 21 21 21 20 20 20 20 20 20 20 20 20 20 20 20 19 19 19 19 19 19 19 19 19 19 18 18 18 18 18 18 18 18 18 18 18 17 17 17 17 17 17 17 17 17 17 17 17 17 16 17 17 17 17 17 17 16 16 16 16 16 16 16 16 16 15 15 16
21 20 19 20 20 19 19 19 19 20 20 20 20 20 21 21 21 21 21 21 20 20 20 20 20 20 20 20 20 20 20 20 19 19 19 19 19 19 19 19 19 19 18 18 18 18 18 18 18 18 18 18 17 17 17 17 17 17 17 17 17 17 17 17 17 17 16 17 17 17 17 17 17 16 16 16 16 16 16 15 15 15 15 15 15
21 20 19 20 20 20 20 19 19 20 20 20 20 20 20 21 21 21 21 20 20 20 20 20 20 20 19 19 19 20 20 20 20 19 19 19 19 19 19 19 19 18 18 18 18 18 18 18 18 18 18 17 17 17 17 17 17 17 17 17 17 16 17 17 17 17 16 17 17 17 17 17 17 17 16 16 16 15 15 15 15 15 15 15 15
21 20 20 20 20 20 20 20 19 19 20 20 20 20 20 20 20 20 20 20 20 20 20 20 20 20 19 19 19 19 20 20 20 19 19 19 19 19 19 19 19 18 18 18 18 17 18 18 18 18 17 17 17 17 17 17 17 17 17 17 17 16 16 17 17 16 17 17 17 17 17 17 17 17 16 16 15 15 15 15 15 15 15 15 15
20 20 20 20 20 20 20 20 20 19 19 20 20 20 20 20 20 20 20 20 20 20 20 20 20 19 19 19 19 19 19 19 19 19 19 19 19 19 19 19 18 19 19 18 18 17 18 18 18 17 17 17 17 17 17 17 17 17 17 17 17 17 16 16 17 16 17 17 17 17 17 17 17 17 16 16 15 15 15 15 15 15 15 15 15
19 19 20 20 20 20 20 19 20 19 19 20 20 20 20 20 20 20 20 20 20 20 20 20 20 19 19 19 19 19 19 19 19 19 19 19 19 19 19 19 19 19 18 18 18 18 17 18 17 17 17 18 17 17 17 17 17 17 16 16 17 17 17 16 16 17 17 17 17 17 17 17 17 16 16 16 15 15 15 15 15 15 15 15 15
19 19 19 19 19 20 20 19 19 19 19 19 19 20 20 20 20 20 20 20 20 20 20 20 20 20 19 19 19 19 19 18 19 19 19 19 19 19 19 18 18 19 19 18 18 18 17 17 17 17 17 17 17 17 17 17 16 16 16 16 16 17 17 17 16 17 17 17 17 17 17 17 17 16 16 16 15 15 15 15 15 15 15 15 15
19 19 19 19 19 20 20 20 19 19 19 19 19 19 20 20 20 20 20 20 20 20 19 20 20 20 19 19 19 19 19 19 19 19 19 19 19 19 19 18 18 18 18 18 18 18 17 17 17 17 17 17 17 17 17 17 16 16 16 17 17 17 17 17 17 17 17 16 17 17 17 17 16 16 16 16 16 15 15 15 15 15 15 15 15
19 18 19 19 19 19 20 20 19 19 19 19 19 19 20 20 20 20 20 20 20 20 19 20 19 19 19 19 19 19 19 19 18 19 19 19 19 19 19 18 18 18 18 18 18 18 17 17 17 17 17 17 18 17 17 17 17 17 17 17 17 17 17 17 17 17 17 16 16 16 17 17 16 16 16 16 15 15 15 15 15 14 14 15 15
18 18 18 19 19 19 19 19 19 19 19 19 19 19 20 19 19 19 19 19 19 20 19 19 19 19 19 19 19 19 19 19 19 19 19 18 19 19 19 19 18 18 18 18 18 18 17 17 17 17 17 18 18 17 17 17 17 17 18 18 18 17 17 17 17 17 17 17 16 16 17 16 16 16 16 16 15 15 15 15 14 14 14 15 15
18 18 19 19 19 19 19 19 19 19 19 19 19 19 19 19 19 19 19 19 19 19 19 19 19 19 19 19 19 19 19 19 19 18 18 18 19 19 19 19 18 18 18 18 18 18 18 17 17 17 17 18 17 17 17 17 18 18 18 18 18 18 17 17 17 17 17 17 16 17 17 16 16 16 16 15 15 15 15 15 14 14 14 15 15
18 18 18 18 19 19 19 19 19 19 19 19 19 19 19 18 19 19 18 18 19 19 19 19 19 19 19 19 19 19 19 19 18 18 18 18 18 19 19 19 19 18 18 18 18 18 18 18 18 17 17 17 17 17 18 18 18 18 18 19 18 18 18 17 17 17 17 17 16 17 17 16 16 16 16 15 15 15 15 15 14 14 14 14 15
18 18 18 18 18 18 19 19 19 19 19 19 19 19 19 19 19 19 18 19 19 19 19 19 19 19 19 19 19 19 19 18 18 18 18 18 18 18 19 19 19 19 18 18 18 18 18 18 18 18 18 17 18 18 18 18 18 18 19 19 18 18 18 17 17 17 17 17 16 16 17 16 16 16 16 15 15 15 15 14 14 14 14 14 14
18 18 18 18 18 18 18 19 19 19 19 19 19 19 18 18 19 18 18 19 19 18 18 18 19 18 18 18 19 18 18 18 18 18 18 18 18 18 19 19 19 19 19 18 18 18 18 18 18 18 18 18 18 18 18 19 19 19 19 19 19 18 18 17 17 17 17 17 16 16 16 16 16 16 16 15 15 15 15 14 14 14 14 14 14
18 18 18 18 18 18 18 18 18 19 19 19 19 19 18 18 18 18 19 19 18 18 18 18 18 18 18 18 18 18 18 18 18 18 18 18 18 18 18 18 19 19 19 18 18 18 17 18 18 18 18 18 18 18 18 18 19 19 19 19 19 18 18 18 18 17 17 17 17 16 16 16 16 16 16 15 15 15 15 14 14 14 14 14 14
17 17 17 17 17 17 17 18 18 18 19 19 19 19 18 18 18 18 18 18 18 18 18 18 18 18 18 18 18 18 18 18 18 18 18 18 18 18 18 18 18 19 19 18 18 18 17 17 17 17 17 18 18 18 18 18 18 19 19 19 19 19 18 18 18 17 17 17 17 17 17 16 16 16 16 15 15 15 15 14 14 14 14 14 14
17 17 17 17 17 17 17 18 18 18 18 19 19 19 18 18 18 18 18 18 18 18 18 18 18 18 18 18 18 18 17 18 18 18 18 18 18 18 18 18 18 18 18 18 18 18 17 17 17 17 17 17 17 17 18 18 18 19 19 19 19 19 18 18 18 17 17 17 17 17 17 16 16 16 16 15 15 15 15 14 14 14 14 14 14
17 17 17 17 17 17 17 17 17 18 18 18 19 19 18 18 18 18 18 18 18 18 18 18 18 18 18 18 18 18 17 17 18 18 18 18 17 17 17 17 17 18 18 18 18 17 17 17 17 17 17 17 17 17 17 17 18 19 19 19 19 19 18 18 17 17 17 17 17 17 17 16 16 16 16 15 15 15 15 14 14 14 14 14 14
17 17 17 18 17 17 17 17 17 17 18 18 18 18 18 18 18 18 18 18 18 18 18 18 18 18 18 18 18 18 17 17 18 18 18 18 17 17 17 17 17 17 17 18 17 17 17 17 17 17 17 17 17 17 17 17 18 18 19 19 19 19 18 18 18 17 17 17 17 17 17 16 16 16 16 15 15 15 15 14 14 14 14 14 13
17 17 17 17 17 17 17 17 17 17 18 18 18 18 17 17 18 18 18 18 18 18 18 18 18 18 18 18 18 18 17 17 18 18 18 18 18 18 17 17 17 16 17 17 17 17 17 17 16 16 17 16 17 17 17 17 17 18 18 18 18 18 18 18 18 18 17 17 17 17 17 16 16 16 16 16 15 15 15 15 14 14 14 14 14
17 17 17 17 17 18 18 17 17 17 17 17 17 17 17 17 18 18 17 17 17 17 18 18 18 18 18 18 18 17 17 17 18 18 18 18 18 18 18 17 17 16 17 17 17 17 17 17 16 16 16 17 16 17 17 17 17 18 18 18 18 18 18 18 18 18 18 17 17 17 17 17 16 16 16 16 15 15 15 15 14 14 14 15 14
17 17 17 17 17 18 18 18 17 17 17 17 17 17 17 17 18 18 17 17 17 17 17 17 17 18 18 18 17 17 17 17 18 18 17 17 17 17 17 17 17 17 17 17 17 17 17 17 16 16 17 16 16 17 17 17 17 18 18 18 18 18 18 18 18 18 18 18 18 17 17 17 17 16 16 16 16 15 15 15 14 14 14 14 14
17 17 17 17 17 18 19 19 18 18 18 18 18 17 17 17 17 17 18 17 17 17 17 17 17 17 18 17 17 17 17 17 17 18 17 17 17 17 17 17 17 17 17 17 17 17 17 17 17 17 16 16 17 17 17 17 17 17 17 18 18 18 18 18 18 18 18 18 18 18 18 17 17 16 16 16 16 15 15 15 15 14 14 14 14
17 17 17 17 18 18 19 19 19 19 19 18 18 18 17 17 17 17 17 17 17 17 17 17 17 17 17 17 17 17 17 17 17 17 17 17 18 17 17 17 17 17 17 17 17 17 17 17 17 17 16 16 17 17 17 17 17 17 17 17 17 17 18 18 18 18 18 18 18 18 18 17 17 17 16 16 16 16 15 15 15 14 14 14 14
17 17 17 17 18 18 18 19 19 19 19 19 19 18 17 17 17 17 17 17 17 17 17 17 17 17 17 17 17 17 17 17 17 16 16 17 18 17 17 17 16 16 16 17 17 17 16 16 16 16 17 16 16 17 17 17 17 17 17 17 17 17 17 18 18 18 18 18 18 18 18 18 17 17 17 16 16 16 16 15 15 15 14 14 14
18 17 17 18 18 18 18 19 19 19 19 19 19 18 17 17 17 17 17 16 16 17 17 17 17 17 17 17 17 16 17 17 16 16 16 17 17 16 16 17 16 16 16 16 17 16 16 16 16 16 16 16 16 17 17 17 17 17 17 17 17 17 17 17 18 18 18 18 18 18 18 18 17 17 17 17 16 16 16 15 15 15 15 15 15
18 18 18 18 18 18 19 19 19 19 19 19 19 18 17 17 17 17 16 16 16 16 16 16 17 17 17 16 16 16 16 16 15 15 15 16 17 16 15 16 16 16 16 16 16 16 16 16 16 16 16 16 16 16 17 17 17 17 17 17 17 18 18 18 18 18 18 18 18 18 18 18 17 17 17 17 16 16 16 16 15 15 15 15 15
18 18 18 19 18 18 19 19 19 19 18 18 18 17 17 17 16 16 16 16 16 16 16 16 16 17 17 16 16 15 15 15 15 15 15 16 17 15 15 15 16 15 15 16 16 16 17 16 16 16 16 16 16 16 16 16 17 17 17 17 18 18 18 18 18 18 18 18 18 18 18 18 17 17 17 17 17 17 16 16 16 16 15 15 15
19 18 18 18 19 18 19 19 19 18 18 18 17 18 17 17 16 16 16 16 15 15 15 16 16 16 16 16 15 15 15 15 15 15 15 15 15 15 15 15 15 15 15 16 16 16 17 17 16 16 16 16 16 16 16 16 16 16 17 17 18 18 18 18 18 18 18 18 18 18 18 18 18 17 17 17 17 17 17 16 16 16 16 15 15
19 19 18 18 18 18 18 18 18 18 18 18 18 18 18 17 16 16 16 16 16 15 15 15 16 16 16 16 15 15 15 15 15 15 15 15 15 15 15 15 15 15 15 16 16 16 16 16 16 17 16 16 16 16 16 17 16 17 17 17 18 18 18 18 18 18 18 19 18 19 19 19 18 18 18 17 17 18 17 17 17 16 16 16 15
19 19 19 19 18 18 18 18 18 18 18 18 18 18 18 17 17 16 16 16 16 16 16 16 16 16 16 16 15 14 15 15 15 15 15 15 15 15 15 15 15 15 15 15 15 15 16 16 16 16 17 17 16 16 16 16 16 17 17 17 18 18 19 19 19 19 19 19 19 19 19 19 19 18 18 18 18 18 18 18 17 17 17 16 16
19 19 19 19 19 19 18 18 18 18 18 18 18 18 17 17 16 16 17 16 16 16 16 16 16 16 16 16 15 15 15 15 14 15 15 15 15 16 15 15 15 15 15 15 15 15 15 16 16 16 16 16 16 16 16 16 16 16 17 17 18 18 19 19 19 19 19 19 19 19 19 19 19 19 18 18 18 18 18 18 17 17 17 17 17
18 19 19 19 19 18 18 18 18 18 18 18 18 18 17 17 17 16 17 17 16 16 16 15 15 15 15 15 15 15 15 15 15 14 14 14 15 15 15 15 15 15 15 15 15 15 15 15 15 15 16 16 16 16 16 16 16 16 16 17 18 18 18 19 19 19 19 19 19 19 19 19 19 19 19 19 19 18 18 18 18 17 17 17 17
18 18 19 19 19 18 18 17 18 18 18 18 18 17 17 17 17 16 17 17 16 16 16 15 15 15 15 15 15 15 15 14 14 14 14 14 14 14 14 15 15 14 15 15 15 15 15 15 15 15 15 16 16 16 16 16 16 16 17 17 17 17 17 18 19 19 19 19 19 19 19 19 19 19 19 19 19 19 18 18 18 18 17 18 18
18 18 18 19 19 18 18 17 17 17 17 18 17 17 17 17 17 17 17 17 16 16 15 15 15 15 15 15 15 14 14 14 14 14 14 14 14 14 14 14 14 14 14 15 15 15 14 15 15 15 15 15 15 15 15 15 15 16 16 16 17 17 18 18 19 19 19 20 19 19 19 19 19 19 19 19 19 19 19 19 18 18 18 18 18
17 18 18 18 18 18 18 18 17 17 17 18 18 18 17 17 17 17 17 16 16 16 15 15 15 15 14 14 14 14 14 14 14 14 14 14 14 14 14 14 14 14 14 14 14 14 14 14 14 14 15 15 15 15 15 15 15 15 15 15 16 17 18 18 18 18 19 19 19 19 19 19 19 19 19 19 19 19 19 19 19 18 18 18 18
17 17 18 18 18 18 18 18 17 17 17 18 18 18 17 17 17 17 16 16 16 15 15 15 14 14 14 14 14 14 14 14 14 14 14 14 14 14 14 14 14 14 14 14 14 14 14 14 14 14 14 14 14 14 15 15 15 15 15 15 16 16 17 18 18 18 18 18 19 19 19 19 19 18 18 19 19 19 19 19 19 18 18 18 18
16 17 17 18 18 18 18 18 18 17 17 18 18 17 17 17 17 17 16 16 15 15 15 15 14 14 14 14 14 14 14 14 14 14 14 14 14 14 14 14 14 14 14 14 14 14 14 14 14 14 14 14 14 14 14 15 15 15 15 15 15 15 16 17 17 17 17 18 18 18 18 18 18 17 17 17 17 18 18 18 18 18 18 18 18
16 16 17 18 18 18 18 18 18 17 17 18 17 17 17 17 17 16 16 16 15 15 15 14 14 14 14 14 14 13 13 14 14 14 14 14 14 14 14 14 14 14 14 14 14 14 14 14 14 14 14 15 15 14 14 14 14 15 15 15 15 15 16 16 16 17 17 17 17 17 17 17 17 17 17 17 17 17 18 18 18 18 18 18 18
16 17 17 18 18 18 18 18 18 18 17 17 17 17 17 17 17 16 16 15 15 15 15 15 15 14 14 14 14 13 13 13 13 13 14 14 14 14 14 14 14 14 14 14 13 14 14 14 14 14 14 14 14 14 14 14 14 14 14 15 15 15 15 15 16 16 17 17 17 16 17 17 17 17 17 17 17 17 17 17 17 18 18 18 18
16 17 17 18 18 18 18 18 18 18 17 17 17 18 17 17 17 17 17 16 16 16 16 16 15 15 14 14 14 13 13 13 13 13 13 13 14 14 13 13 13 13 13 13 13 13 13 13 13 14 14 14 14 14 13 13 14 14 13 14 14 14 15 15 15 16 16 16 16 16 16 16 16 16 17 17 17 17 17 17 17 17 17 17 17
15 16 17 18 18 18 18 18 18 18 17 17 17 18 18 18 17 17 17 17 17 17 17 16 15 15 14 14 14 14 13 13 13 13 13 13 14 13 13 13 13 13 13 12 12 13 13 13 13 13 13 13 14 13 13 13 13 13 13 13 14 14 14 15 15 15 16 16 16 16 16 16 16 16 16 16 16 16 16 16 17 17 17 17 17
15 16 17 17 18 18 18 17 17 18 18 17 17 18 18 18 18 17 17 17 17 17 17 16 15 15 14 14 14 14 13 13 13 13 13 14 14 14 14 13 13 13 13 12 12 12 12 13 13 13 13 13 13 13 12 12 12 12 12 13 13 14 14 14 14 15 15 15 16 16 16 16 16 16 15 15 16 16 16 16 16 16 17 17 17
15 16 17 17 17 18 17 17 17 17 17 17 17 18 18 18 18 17 17 17 17 17 16 16 15 15 14 14 14 14 14 13 13 13 13 14 14 14 14 14 13 13 12 12 12 12 12 12 12 12 12 12 12 12 12 11 11 11 11 12 13 13 14 14 14 14 15 15 15 15 16 15 15 15 15 15 15 15 15 16 16 16 16 16 17
15 15 16 16 17 18 17 17 17 17 17 17 17 17 18 18 18 18 17 17 17 17 17 16 15 15 14 14 14 14 14 14 14 14 14 14 14 14 14 13 13 13 12 12 12 11 11 11 11 11 11 11 11 11 11 11 11 11 10 11 12 12 12 13 13 13 14 15 14 15 16 16 15 16 15 15 15 15 16 16 16 16 16 16 16
Height
791 792 794 796 797 799 800 801 803 803 804 805 806 807 807 808 809 809 810 811 811 812 813 814 815 816 817 818 819 819 820 821 822 822 823 824 824 824 824 826 827 827 828 829 830 831 832 832 833 833 833 834 834 835 835 835 835 835 835 835 835 835 835 835 835 835 834 834 833 833 833 833 833 833 833 833 834 834 834 835 835 836 837 837 837
789 792 794 796 798 799 801 802 803 803 805 806 807 808 808 809 810 810 811 812 812 813 814 815 816 817 818 818 820 820 821 822 823 823 824 825 825 826 826 827 827 828 829 830 831 831 833 833 833 833 834 834 835 835 836 836 836 836 836 836 836 836 836 836 836 835 835 835 834 834 834 834 834 833 834 834 834 835 835 836 836 837 838 838 839
789 792 795 796 798 799 801 802 802 804 805 806 807 808 809 810 810 811 812 813 813 814 815 816 817 818 818 819 820 821 822 823 824 824 825 826 826 827 827 828 828 829 830 830 831 832 833 833 834 834 834 835 835 836 837 837 837 837 837 837 837 837 837 837 837 836 836 836 835 835 835 835 835 835 835 835 835 836 836 837 837 838 838 839 840
790 793 796 797 799 800 801 803 803 804 806 807 808 809 810 810 811 812 812 813 814 815 815 816 817 818 819 820 821 822 823 824 824 825 826 827 827 828 828 828 829 830 830 831 832 833 834 834 834 835 835 835 836 837 837 838 838 838 838 838 838 838 838 838 838 837 837 837 837 836 836 836 836 836 836 837 837 837 837 838 838 838 839 839 840
791 794 797 798 799 801 802 803 803 805 806 807 808 809 810 811 812 812 813 814 815 816 816 817 818 819 820 821 822 823 823 824 825 826 827 827 828 828 829 829 830 830 830 831 832 833 834 835 835 836 836 836 837 837 838 838 839 839 838 839 839 839 839 839 838 838 838 838 838 838 838 838 838 838 838 838 838 838 838 839 839 839 839 840 841
792 795 797 798 800 801 803 804 804 805 807 808 809 810 811 811 812 813 814 815 816 816 817 818 819 820 821 822 822 823 824 824 825 826 827 827 828 829 829 830 830 830 831 831 832 833 834 835 836 836 837 837 838 838 839 839 839 839 839 840 840 840 839 839 839 839 839 839 839 839 840 840 839 839 839 839 839 839 839 840 840 840 841 841 842
792 795 797 799 800 802 803 804 805 806 807 808 809 810 811 812 813 814 815 816 816 817 818 819 820 821 822 822 823 824 824 825 826 826 827 827 828 829 829 830 830 831 831 832 832 833 834 835 836 837 838 838 838 839 839 840 840 840 840 840 840 840 840 840 840 840 840 840 841 841 841 841 841 840 840 840 840 840 840 841 841 842 842 842 843
793 796 798 800 801 802 804 805 806 806 808 809 810 811 812 813 813 814 815 816 817 818 819 820 821 822 823 823 824 824 825 825 826 826 827 828 828 829 830 830 831 831 832 832 832 833 834 835 837 837 838 838 839 839 840 840 841 841 841 841 841 841 841 841 841 841 841 842 842 842 842 842 842 842 841 841 841 841 841 841 842 843 843 843 844
794 796 798 800 802 803 804 806 807 807 808 809 811 811 812 813 814 815 816 817 818 819 820 821 822 823 823 824 825 825 826 826 827 827 828 828 829 830 830 830 831 832 832 833 833 834 834 835 837 838 838 839 839 840 840 841 841 842 842 842 842 842 842 842 842 842 842 843 843 843 843 843 843 843 843 842 842 842 842 842 843 844 844 844 844
795 797 799 801 802 803 804 806 807 808 808 810 811 812 813 814 815 816 817 818 819 820 821 822 823 823 824 825 826 826 827 827 828 828 828 829 830 830 830 831 831 832 833 833 834 835 835 835 836 838 838 839 840 840 841 842 842 842 843 843 843 843 843 842 843 843 843 844 844 844 844 844 845 845 844 844 843 842 842 843 844 844 845 845 845
796 798 799 801 802 803 805 806 807 808 809 810 811 812 813 814 815 816 817 818 819 820 821 822 823 824 825 825 826 827 827 828 828 829 829 830 830 830 831 831 832 832 833 833 834 835 836 836 836 837 838 839 840 841 842 842 843 843 843 843 844 844 843 843 844 844 844 845 845 845 845 845 846 846 845 845 844 844 843 844 844 845 845 846 846
797 798 800 801 802 804 805 806 807 809 810 810 812 813 814 815 816 817 818 819 819 821 821 823 824 824 825 826 827 827 828 829 829 830 830 831 831 831 831 832 833 833 833 834 834 835 836 837 836 837 838 839 840 841 842 843 843 844 844 844 844 845 845 845 845 845 845 846 846 846 846 847 847 846 846 846 846 845 845 845 846 846 846 847 847
797 799 800 802 803 804 805 807 808 808 810 811 812 813 814 815 816 817 818 819 820 821 822 823 824 825 826 826 827 828 829 829 830 830 831 831 832 832 832 832 833 833 834 834 835 835 836 837 837 838 838 839 841 841 842 843 844 844 844 845 845 845 846 846 846 846 846 847 847 847 847 848 848 847 847 847 847 847 847 846 847 847 847 847 848
798 799 801 803 804 805 806 807 808 809 811 811 812 813 814 815 816 817 818 819 820 821 822 823 824 825 826 826 827 828 829 829 830 831 831 831 832 833 833 833 834 834 835 835 835 836 837 837 838 838 839 839 841 842 843 844 844 845 845 845 846 846 846 846 847 847 847 847 848 848 848 848 848 848 848 848 848 848 848 848 848 848 848 848 849
798 800 801 803 804 806 807 807 809 810 811 811 813 814 815 816 816 818 819 819 820 822 823 823 824 825 825 826 827 828 829 829 830 831 831 832 832 833 833 833 834 835 835 836 836 836 837 838 838 839 839 840 841 842 843 844 844 845 845 846 846 846 847 847 848 848 848 848 848 848 849 849 849 849 849 849 849 849 849 849 849 849 849 849 849
799 800 802 803 805 806 807 808 809 810 811 812 813 814 815 816 817 819 820 820 821 823 823 824 824 825 825 826 827 828 829 829 830 831 832 832 833 833 834 834 834 835 836 836 836 837 838 838 839 839 840 840 841 843 843 844 845 845 845 846 846 846 847 848 848 848 848 848 849 849 849 849 849 850 850 850 850 850 850 850 850 850 850 850 850
800 802 803 804 806 807 808 809 810 811 811 813 813 814 816 817 819 820 820 822 823 824 823 824 824 825 826 826 827 828 829 829 830 831 832 832 833 833 834 835 835 835 836 837 837 837 838 839 839 840 841 841 842 843 844 844 845 845 845 846 846 846 847 848 848 849 849 849 849 850 850 850 850 850 850 850 850 850 850 850 850 850 851 851 851
801 803 804 805 806 807 808 809 810 811 812 813 814 815 816 817 818 818 820 823 824 823 823 824 825 826 826 827 828 828 829 829 830 831 832 832 833 834 834 835 836 836 836 837 838 838 839 839 840 841 841 842 843 843 844 845 845 846 846 846 846 847 847 848 849 849 849 849 850 850 850 850 850 851 851 851 851 851 851 851 851 851 851 852 852
802 804 805 805 807 808 809 810 811 812 812 813 814 815 815 816 817 818 820 821 821 822 824 825 825 826 827 828 828 829 829 830 831 831 832 833 833 834 835 836 836 837 837 837 838 839 839 840 841 841 842 843 843 844 844 845 845 846 846 846 847 847 848 849 849 850 850 850 850 851 851 850 851 851 851 851 851 851 851 851 851 851 852 852 852
804 805 805 806 807 808 809 810 811 812 813 813 814 815 815 816 818 819 820 820 820 822 825 825 825 825 826 827 828 829 830 830 831 832 832 833 833 834 835 836 836 837 837 838 838 839 840 840 841 842 842 843 844 844 844 845 846 846 846 847 847 847 848 849 850 850 850 850 851 851 851 850 851 852 852 852 852 852 852 852 852 852 852 853 853
804 805 806 807 807 808 809 810 811 812 813 813 814 815 815 816 818 819 820 820 821 823 825 825 825 825 826 827 828 829 830 830 831 832 832 833 833 834 835 836 836 837 838 838 839 839 840 841 841 842 842 843 844 844 845 845 846 846 847 847 847 848 848 849 850 850 850 851 851 851 851 851 851 852 852 853 853 853 852 852 853 853 853 853 854
804 805 806 807 807 809 810 811 812 812 813 813 814 815 816 816 818 819 819 821 821 823 824 824 824 825 826 827 828 829 830 830 830 831 832 833 834 834 835 836 837 837 838 839 839 839 840 841 842 842 843 844 844 845 845 846 846 847 847 847 847 848 849 849 850 850 851 851 851 851 851 851 852 852 853 853 853 853 853 853 853 853 853 854 854
804 805 806 807 808 809 810 811 812 812 813 814 814 815 816 817 817 818 819 821 821 823 823 823 824 825 826 827 827 828 830 830 830 831 832 833 834 835 836 836 837 838 839 839 840 840 840 841 842 842 843 844 845 845 846 846 846 847 847 847 847 848 849 849 850 851 851 851 851 851 851 851 852 853 853 853 853 853 853 853 853 853 854 854 854
803 804 805 807 808 809 810 811 812 812 813 814 814 815 816 816 817 818 819 820 821 821 822 822 823 825 826 826 827 828 829 830 830 831 832 833 834 835 836 837 838 838 839 840 840 841 841 841 842 842 843 844 845 846 846 846 846 847 847 847 847 848 849 850 850 851 851 851 851 851 851 852 852 853 853 853 854 854 854 854 854 854 854 854 854
803 804 805 807 808 809 810 811 812 812 813 814 814 815 815 816 817 818 818 820 820 821 821 822 823 824 825 826 826 827 829 830 830 831 832 834 835 836 837 837 838 839 839 839 840 841 841 841 842 842 843 844 845 845 846 846 846 847 847 847 848 848 849 850 850 851 851 852 852 852 852 852 853 853 853 854 854 854 854 854 854 854 854 854 854
803 804 805 806 808 809 809 810 811 812 813 813 814 815 815 816 816 817 818 819 820 820 821 822 823 824 825 825 826 827 828 830 830 831 832 834 835 835 836 837 838 838 839 839 840 840 841 841 841 842 842 844 845 845 846 846 846 847 847 847 848 848 849 850 850 851 851 852 852 852 852 852 853 853 854 854 854 854 855 854 855 854 854 854 854
803 804 805 806 807 808 809 810 811 812 812 813 814 814 815 815 816 817 818 819 819 820 821 822 823 824 825 825 826 827 828 829 830 831 832 833 834 835 835 836 837 838 838 839 840 840 840 841 841 841 842 843 844 845 846 846 846 846 847 847 848 848 849 850 850 851 851 852 852 852 852 852 852 853 854 854 854 854 855 855 855 855 854 854 855
802 803 804 805 806 807 808 809 810 811 812 812 813 813 814 815 816 817 818 818 819 820 821 822 822 823 824 825 826 827 828 829 830 831 832 833 834 834 834 835 836 837 837 838 839 839 840 840 840 841 842 843 844 845 845 846 846 846 847 847 848 848 849 850 850 851 851 851 852 852 852 852 852 853 853 854 854 855 855 855 855 855 855 855 855
801 802 803 804 805 806 807 808 809 810 810 811 812 813 814 814 816 817 817 818 819 820 821 821 822 823 824 825 826 827 828 829 830 831 832 833 833 832 833 834 835 835 835 836 837 837 838 839 839 840 842 842 843 844 845 846 846 846 846 847 848 848 849 850 850 850 851 851 851 852 852 852 852 853 853 854 854 855 855 855 855 855 855 855 855
801 801 802 803 804 805 807 807 808 809 810 811 811 812 813 814 815 816 817 818 818 819 820 821 822 823 823 825 825 826 827 828 830 831 832 832 830 831 833 834 834 833 833 834 835 836 837 837 838 839 841 842 843 844 845 845 846 846 846 847 848 848 849 849 850 850 850 851 851 851 852 852 852 853 853 854 854 855 855 855 855 855 855 856 855
800 801 802 803 804 806 807 808 809 809 810 810 811 812 813 813 814 815 816 817 818 819 819 820 821 822 823 824 825 826 826 827 829 830 832 830 828 831 833 833 833 833 833 835 835 836 837 838 838 839 840 842 842 843 844 845 846 846 846 847 847 848 849 849 849 850 850 850 850 851 851 852 852 852 853 853 854 855 855 855 855 856 856 856 856
799 801 802 803 804 806 807 808 809 809 810 811 811 812 813 814 814 815 816 817 818 818 819 820 820 821 822 823 824 825 825 826 828 829 831 830 828 830 832 832 832 833 834 835 836 837 837 838 838 839 840 841 842 842 843 844 845 845 846 846 847 848 848 848 849 849 849 850 850 850 851 851 852 852 853 853 854 855 855 855 855 856 856 856 856
799 801 802 803 804 806 807 808 809 810 810 811 812 812 813 814 814 815 816 817 817 818 819 819 820 821 821 822 823 823 824 826 827 828 830 829 827 829 831 831 831 832 832 833 835 836 837 837 838 839 840 840 841 841 842 843 844 844 845 846 846 847 847 848 848 848 849 849 849 850 850 851 851 852 852 853 853 854 855 855 855 856 856 856 856
799 800 801 803 804 806 807 808 809 810 811 811 812 812 813 814 814 815 816 816 817 818 819 819 820 821 821 822 822 823 823 825 826 828 829 828 827 829 830 829 829 830 831 833 834 835 835 836 837 838 839 839 840 840 841 842 843 843 844 845 845 846 846 847 847 847 848 848 849 849 849 850 851 851 852 852 853 853 854 854 855 855 855 856 856
799 800 801 803 804 806 807 808 808 810 811 811 812 813 813 814 815 816 816 816 817 818 819 819 820 820 821 822 823 822 822 824 826 827 827 828 827 827 827 826 827 829 831 831 831 831 832 833 834 836 837 838 839 839 840 841 842 842 843 843 844 844 845 845 846 846 847 847 848 848 848 849 850 850 851 852 852 852 853 853 854 854 855 855 855
798 799 801 803 804 805 806 807 808 810 811 811 812 813 813 814 815 816 816 817 817 818 819 819 820 820 821 822 822 822 822 823 825 826 826 827 827 826 825 826 827 828 828 828 829 830 832 833 833 834 834 836 837 838 838 839 840 841 841 842 842 843 843 843 844 845 845 846 847 847 848 848 849 849 850 851 851 851 852 852 853 854 854 854 855
798 800 801 802 804 805 806 807 808 809 811 811 812 813 814 815 815 816 817 817 817 818 819 819 820 821 821 821 821 822 822 822 824 825 825 826 827 826 825 826 827 827 827 826 828 830 830 831 831 832 833 834 835 836 837 838 839 839 840 840 841 841 841 842 842 843 844 844 845 846 847 847 848 848 849 849 850 850 851 851 852 852 853 853 854
798 800 801 803 804 805 806 808 809 810 810 811 812 813 814 815 816 817 817 817 818 818 819 820 821 821 821 821 821 821 822 822 823 824 825 825 826 826 825 826 826 826 826 826 826 827 828 829 830 831 832 833 834 835 835 836 837 838 839 839 839 839 839 840 840 841 842 843 844 844 845 846 846 847 847 848 848 849 849 850 851 851 852 852 853
799 800 802 803 804 805 807 808 809 810 810 811 812 813 814 815 816 817 817 818 818 819 819 820 821 821 821 821 821 821 822 823 824 824 825 825 825 825 825 825 825 825 826 826 826 826 827 829 830 831 831 832 833 834 834 835 836 837 838 838 838 838 838 838 839 840 841 841 842 843 843 844 845 845 846 846 847 847 848 848 849 850 850 851 851
799 800 802 803 804 805 807 808 809 810 811 811 812 813 814 815 816 817 817 818 818 819 820 820 821 821 821 821 821 822 822 823 824 824 824 824 825 825 825 824 824 825 825 825 825 826 827 828 829 829 829 830 832 833 833 834 834 835 836 836 837 837 837 837 837 838 839 840 841 841 842 842 843 843 844 844 845 845 846 847 848 848 849 849 849
799 800 801 802 803 805 806 807 808 810 810 811 812 813 814 815 816 817 818 818 819 819 820 820 821 821 821 821 822 822 823 823 824 824 824 824 824 824 824 824 824 825 825 825 825 825 826 827 827 827 828 829 831 831 832 833 833 834 835 835 835 836 836 836 836 836 837 838 839 839 840 840 841 841 842 842 843 843 844 845 846 846 847 848 848
797 799 800 802 803 804 805 807 808 809 810 811 812 813 814 815 816 817 818 818 819 820 820 821 821 821 821 822 822 822 823 823 824 824 824 824 824 824 824 825 825 825 825 825 825 825 826 826 826 827 828 829 830 830 831 832 832 832 834 835 834 834 834 834 835 835 835 836 837 837 838 838 839 840 840 840 841 841 842 843 844 844 845 846 846
796 798 799 801 802 804 805 806 808 809 810 811 812 813 814 815 816 817 818 818 819 820 820 821 821 822 822 822 822 823 823 824 824 824 825 825 825 825 825 825 825 825 826 826 826 826 826 826 827 827 828 829 829 830 830 830 831 832 834 834 833 833 834 833 833 833 834 834 835 835 836 836 837 838 838 838 839 839 840 841 842 842 843 844 844
795 796 798 799 801 802 803 805 807 808 810 811 812 813 814 815 816 817 818 818 819 820 821 821 822 822 822 823 823 823 824 824 825 825 825 825 825 826 826 826 826 826 827 827 827 827 827 827 827 827 828 828 829 829 830 830 830 831 833 834 833 835 835 833 832 832 832 833 833 834 834 834 835 836 836 836 837 837 838 839 839 840 841 841 842
792 793 795 797 799 801 802 804 806 807 809 810 811 812 813 815 816 817 818 819 819 820 821 821 822 823 823 823 823 823 824 825 825 826 826 826 826 826 826 827 827 827 827 827 828 828 828 828 828 828 828 828 828 829 830 830 830 830 831 833 834 835 834 833 832 832 831 832 833 833 833 833 833 834 834 834 835 835 836 836 837 838 838 838 839
789 790 793 795 798 799 801 802 804 806 808 809 810 811 813 814 815 817 818 818 819 820 820 821 822 823 823 823 824 824 825 825 826 826 827 827 827 827 827 827 827 828 828 828 828 828 829 829 829 829 828 828 829 830 831 831 830 830 830 832 833 833 833 832 833 832 831 831 831 832 832 832 832 832 833 833 833 833 834 834 835 835 835 836 836
786 788 791 794 796 798 800 802 803 805 807 808 809 810 812 813 815 816 817 818 818 819 820 821 821 822 823 824 824 824 825 826 826 827 827 827 827 828 828 828 828 828 828 829 829 829 829 829 829 829 829 829 830 830 831 831 831 831 831 832 831 832 832 832 832 832 831 831 830 831 831 832 832 832 832 832 832 832 832 832 833 833 833 833 833
783 787 789 791 794 796 799 801 803 804 806 807 808 809 811 812 814 816 817 817 818 819 820 821 821 822 823 824 824 825 825 826 826 827 827 828 828 828 828 828 829 829 829 829 830 830 830 830 830 830 830 830 830 831 832 832 832 832 833 833 832 832 832 832 832 831 831 831 830 829 830 831 831 831 831 831 831 831 831 831 831 831 831 831 832
782 785 787 790 793 795 798 800 802 803 804 806 807 808 809 811 813 814 816 817 817 819 820 821 821 822 822 823 824 825 825 826 826 827 827 828 828 828 829 829 829 830 830 830 830 830 831 830 830 831 831 831 831 832 832 833 833 833 833 833 833 833 832 832 832 832 831 832 831 830 830 831 830 830 830 830 830 830 830 830 830 830 830 830 830
780 783 786 789 792 794 796 798 800 802 803 804 806 807 809 810 811 813 815 816 817 818 819 820 821 822 822 823 824 825 825 826 826 827 828 828 829 829 829 829 830 830 830 831 831 831 831 831 831 831 831 832 832 832 833 833 833 834 834 834 834 833 833 832 833 833 832 832 832 831 831 831 830 829 829 829 829 828 828 828 828 828 828 828 828
780 783 785 787 790 792 794 796 798 800 802 803 805 806 808 809 810 812 814 815 817 818 819 820 821 821 822 823 824 824 825 825 826 827 827 828 829 829 829 830 830 830 831 831 831 831 831 831 831 832 832 832 833 833 833 833 833 834 834 834 834 834 834 834 834 834 834 833 833 832 831 831 830 829 828 828 827 827 827 827 827 826 826 826 826
Wind_Speed
17 16 16 18 18 19 19 21 22 22 22 22 22 21 21 21 21 20 20 19 18 18 19 20 20 20 21 20 20 19 18 18 17 17 19 19 19 20 21 21 20 19 18 18 18 16 15 14 13 12 12 12 12 12 14 16 16 16 16 16 16 15 15 16 16 16 17 17 17 17 16 16 16 16 16 17 17 17 17 18 17 16 16 15 16
19 17 17 19 19 19 20 21 21 22 22 22 22 21 21 21 21 20 20 18 18 19 19 20 20 20 20 19 19 18 17 17 17 17 18 18 18 18 18 19 19 18 17 17 16 15 14 13 13 12 11 12 12 11 13 15 16 16 15 15 16 15 16 16 16 16 16 16 16 16 16 16 16 16 16 16 16 16 17 18 16 15 16 15 15
21 16 16 19 19 19 19 20 20 21 22 22 22 22 21 21 21 20 20 18 18 19 20 20 20 19 19 19 19 18 17 17 18 18 17 17 16 16 16 15 16 17 16 16 15 14 13 13 13 12 11 12 11 11 12 14 14 15 14 14 16 15 16 17 15 15 15 15 16 16 16 16 15 15 15 15 16 15 15 15 15 15 16 16 16
21 16 15 19 19 19 19 20 20 21 22 23 22 22 22 21 21 20 20 19 19 20 20 20 20 19 20 20 19 19 19 18 18 18 17 16 15 15 15 14 15 15 15 15 15 14 13 12 12 11 11 11 11 11 12 14 14 14 13 14 16 15 15 14 13 14 14 15 15 16 15 15 15 15 15 15 15 14 14 14 15 15 15 15 16
21 16 15 18 19 19 19 20 20 21 22 23 23 22 22 21 21 21 20 19 19 20 20 20 20 20 21 21 21 20 19 19 18 18 17 16 15 15 15 15 14 14 14 15 14 14 13 12 12 11 12 12 11 11 11 13 14 14 13 14 15 14 13 12 12 12 14 16 15 14 13 14 15 14 14 14 14 15 15 15 15 15 15 15 15
21 15 16 17 18 19 19 20 20 20 22 22 22 22 22 21 21 21 20 19 19 20 21 21 21 20 21 21 20 20 19 19 18 17 16 16 15 14 14 13 13 13 13 14 14 14 14 13 12 12 12 12 12 11 11 11 12 13 14 14 14 13 12 11 11 12 15 16 13 12 12 13 14 14 14 14 14 14 15 15 15 15 14 14 15
19 14 15 16 18 19 19 20 20 20 21 22 22 22 22 21 21 20 20 19 18 19 20 21 20 20 20 20 19 19 18 18 18 17 17 16 16 15 14 13 12 12 12 13 14 14 14 13 12 12 12 12 12 11 11 11 11 13 14 13 12 11 10 11 11 13 15 13 10 11 11 11 13 14 13 14 14 14 14 14 14 14 14 14 14
18 15 14 15 16 18 19 19 19 20 19 21 21 21 21 21 21 20 20 19 18 18 19 19 19 19 19 19 19 18 18 18 17 17 16 15 15 15 15 14 12 11 12 13 14 15 14 14 13 12 12 12 11 11 11 11 12 13 13 11 11 10 10 11 11 13 13 10 9 9 10 11 12 13 13 13 13 13 13 13 14 14 14 14 14
19 16 14 14 15 17 19 18 19 20 19 19 20 21 21 21 20 20 20 19 19 18 18 18 18 18 17 17 18 18 17 16 15 15 14 14 13 14 14 14 12 11 11 12 14 15 15 15 14 13 13 12 11 11 11 11 12 12 11 11 11 11 11 12 12 12 10 9 9 9 9 10 10 12 12 11 12 12 12 12 13 13 14 14 14
19 16 14 13 15 17 17 18 18 19 19 19 20 21 21 20 20 20 20 19 19 18 17 17 16 17 16 16 16 16 16 15 15 14 14 13 13 14 13 13 13 11 10 12 14 14 14 16 15 14 13 12 12 12 12 12 11 11 10 9 10 12 12 11 12 11 9 8 8 8 10 10 9 11 11 10 11 11 11 12 13 13 13 14 14
17 15 14 13 15 17 17 18 18 19 19 18 19 20 21 20 20 20 19 19 18 18 17 16 16 16 16 15 14 14 14 15 14 14 14 13 13 13 13 14 14 12 11 11 13 14 14 16 16 15 14 13 13 13 13 13 12 11 10 8 9 10 11 11 11 9 9 8 8 8 10 10 9 10 10 10 10 10 11 13 13 13 13 14 14
15 14 13 13 16 18 17 17 18 19 19 18 18 19 20 20 20 19 19 18 18 17 17 16 15 15 15 14 13 13 13 14 13 13 13 13 13 13 14 14 14 12 11 11 13 16 16 16 17 15 15 14 14 15 14 13 12 10 9 8 8 8 9 11 10 8 8 8 8 9 9 9 8 9 10 10 10 10 11 12 12 12 13 13 13
14 13 13 13 15 18 17 16 17 17 18 18 17 17 19 19 19 19 19 18 17 16 16 16 15 15 15 13 13 12 13 13 13 14 13 12 12 13 13 14 14 13 12 11 13 17 16 15 15 15 15 15 15 15 14 12 10 7 6 5 5 6 8 9 8 7 7 7 8 8 7 7 8 8 9 10 9 10 10 11 12 12 13 13 13
15 14 13 12 14 17 17 15 15 15 17 17 17 17 18 19 19 19 18 18 17 16 15 15 14 14 15 14 13 12 13 13 13 13 14 12 11 12 13 14 14 13 12 11 13 17 16 14 14 14 14 15 14 13 12 9 6 4 3 3 3 5 7 8 7 7 6 7 7 7 7 7 7 8 9 9 9 9 10 11 11 11 12 12 12
15 14 13 13 14 16 15 14 14 14 16 17 17 16 17 18 19 18 18 17 17 16 15 15 14 13 14 14 13 12 13 13 13 13 14 13 12 12 13 14 13 12 12 11 12 16 16 14 13 14 14 15 14 12 10 6 4 3 3 3 5 7 8 8 7 7 6 7 6 6 6 6 8 9 8 7 7 9 9 10 11 11 12 12 12
14 14 13 14 14 15 14 13 13 13 14 15 16 16 16 17 18 17 17 17 16 15 15 14 14 13 13 14 13 12 12 13 13 13 13 12 11 11 12 13 13 12 12 11 12 14 15 14 13 13 14 15 13 10 8 5 4 3 3 1 4 8 9 9 7 7 7 7 6 6 6 6 9 9 7 7 6 8 9 10 10 11 12 12 12
13 14 14 14 14 14 13 12 12 12 12 13 14 15 15 16 16 17 16 15 15 14 14 14 13 13 13 13 13 12 12 12 13 12 12 11 10 10 10 12 13 12 12 12 12 13 14 14 13 13 14 14 12 10 8 6 4 3 3 1 3 8 10 9 7 7 7 7 7 6 6 7 9 9 7 7 6 8 9 9 10 10 11 11 11
13 13 14 14 13 12 11 11 11 10 11 12 13 14 15 15 16 17 17 15 14 14 14 13 12 12 12 13 13 13 12 12 12 13 12 11 11 10 10 10 11 12 12 12 12 13 14 14 14 14 14 13 12 11 9 7 4 3 3 2 2 7 9 9 7 7 6 6 6 6 5 7 10 8 8 7 5 7 9 9 10 10 10 11 11
13 13 13 13 12 11 11 11 10 10 10 11 12 13 15 16 16 17 17 17 17 15 14 13 12 12 11 12 12 12 12 12 12 12 12 12 11 10 9 9 9 11 12 11 11 12 13 13 14 14 14 13 12 11 9 7 5 3 3 3 3 6 9 8 7 6 6 6 6 5 6 8 9 7 6 6 6 8 8 9 9 10 11 11 11
12 12 12 11 11 11 11 10 10 10 9 10 11 12 13 14 15 16 15 17 18 15 14 14 13 13 12 12 12 12 12 11 11 11 11 11 10 10 9 9 9 10 11 11 11 11 12 13 13 13 13 13 12 11 10 8 5 3 3 4 4 6 9 9 7 6 6 5 5 5 6 8 8 6 5 5 7 7 7 8 9 9 10 10 10
12 11 10 10 10 10 10 9 9 10 10 10 10 10 10 11 13 14 14 15 17 15 14 14 14 13 12 13 13 12 12 11 11 11 11 10 9 10 9 9 9 9 10 10 11 10 11 11 11 11 12 13 12 11 10 8 6 4 4 5 5 7 10 10 7 6 6 5 5 5 6 8 7 6 5 6 7 5 5 7 8 8 9 9 9
11 10 9 8 9 9 9 9 9 9 10 10 9 10 10 10 11 12 14 16 16 15 15 14 13 12 13 14 14 12 11 11 12 12 11 10 9 9 10 9 9 8 8 9 10 9 10 10 10 10 10 11 12 10 9 8 6 5 5 5 6 8 10 11 8 6 6 5 5 5 6 8 7 5 5 6 5 4 5 6 7 8 8 8 8
11 10 9 8 7 8 8 8 9 9 9 10 9 9 10 10 10 10 13 15 15 15 15 14 12 12 13 14 14 11 10 11 12 11 10 10 9 9 10 9 9 8 7 8 9 8 9 9 10 10 10 10 10 10 9 7 6 5 5 5 6 8 10 11 9 7 6 5 5 5 6 8 6 4 5 6 5 5 5 4 6 7 7 8 8
12 10 9 8 7 8 8 8 8 8 9 9 9 9 9 10 10 10 12 13 13 14 14 13 13 13 13 13 13 11 10 11 10 10 9 9 9 8 9 9 8 7 7 7 8 8 8 9 10 11 10 9 10 9 8 6 6 5 5 5 6 8 9 10 10 8 6 5 5 4 5 7 6 4 4 5 5 5 4 4 6 6 6 7 7
12 10 10 9 8 8 8 8 8 8 8 8 8 9 9 10 10 10 11 11 12 13 13 13 13 14 14 14 13 11 11 11 10 9 9 9 9 8 9 9 8 8 8 8 8 8 8 9 10 11 11 10 9 9 8 6 6 6 5 4 6 8 9 9 9 8 7 6 5 4 5 7 6 4 4 5 5 5 4 4 5 4 4 5 6
13 11 11 10 9 9 8 8 7 7 8 7 7 8 8 8 10 9 9 10 11 12 13 13 13 14 14 14 13 11 12 11 10 9 10 10 9 9 9 10 9 8 9 9 8 9 10 10 9 10 12 10 9 9 9 7 6 7 5 4 6 8 10 9 9 8 7 6 5 4 5 6 7 5 4 5 4 4 5 3 3 3 2 3 5
14 12 12 11 10 10 9 8 7 7 7 7 7 7 7 8 8 8 8 8 10 12 13 14 14 15 15 14 12 11 12 12 10 10 10 10 10 10 10 11 10 9 10 9 8 9 11 10 7 8 11 11 8 7 7 7 7 7 6 5 5 8 9 10 9 9 8 7 6 5 5 5 6 6 5 6 4 4 4 3 2 3 1 2 3
14 13 12 11 11 11 10 9 8 8 7 6 7 6 7 7 7 7 8 7 8 10 11 14 14 15 15 14 13 12 12 11 11 10 10 10 11 11 12 12 11 10 10 8 8 9 11 11 9 9 10 9 8 6 5 6 7 7 7 6 5 7 9 10 9 9 9 8 8 6 5 5 6 6 6 6 5 4 4 3 3 3 2 1 1
14 14 13 11 12 13 13 11 10 9 8 7 7 7 7 7 7 8 8 7 8 7 8 12 14 14 14 14 14 13 12 11 11 11 10 9 10 11 12 12 12 11 11 10 9 9 10 11 12 11 9 8 7 6 5 5 7 6 6 7 6 6 8 10 10 9 9 9 8 8 7 6 6 6 6 7 6 5 4 3 3 3 3 1 1
14 16 14 13 15 15 15 13 12 11 10 9 9 8 7 7 8 8 7 8 8 7 7 9 11 13 13 13 12 12 12 11 11 10 8 9 12 12 11 12 13 13 12 11 10 10 10 10 11 11 9 8 6 6 6 4 5 5 5 6 6 6 7 8 9 10 10 9 9 9 8 7 6 6 6 6 7 6 4 4 3 3 3 2 1
17 17 15 15 16 15 15 14 13 11 10 9 8 8 7 7 7 7 7 6 7 7 8 9 9 10 11 11 11 12 13 12 11 9 8 12 16 14 12 14 15 14 12 10 9 9 9 8 9 10 10 9 7 6 6 5 4 5 5 5 6 7 7 8 9 9 10 10 10 10 10 9 8 7 7 6 8 7 6 4 4 3 3 2 1
21 18 15 17 17 15 15 15 13 12 10 9 8 7 6 6 6 6 5 6 8 9 10 10 10 10 10 11 12 12 12 12 12 9 8 13 16 15 15 16 18 16 13 10 9 8 7 8 9 9 10 9 8 7 6 6 5 5 5 5 6 8 8 9 10 10 11 11 12 12 11 11 10 8 8 7 8 8 8 6 5 4 4 2 1
23 20 17 19 18 16 16 15 13 12 10 9 8 7 7 6 6 5 5 6 9 10 10 10 10 11 11 11 11 11 8 6 7 5 4 9 13 12 10 12 16 17 15 12 9 8 8 8 9 9 9 8 8 7 6 6 6 6 6 7 7 9 9 10 11 12 11 11 13 13 13 13 12 11 10 9 8 8 8 7 6 6 5 4 2
23 22 20 20 19 17 17 15 14 12 10 9 8 7 7 7 5 4 4 4 5 6 7 8 8 8 9 9 10 10 7 4 3 1 1 6 10 6 4 8 11 11 12 12 11 11 11 10 9 8 8 8 8 7 6 4 5 6 7 7 9 10 12 12 13 14 13 12 13 14 14 14 14 12 11 10 9 9 9 9 8 7 6 6 4
24 23 21 19 19 18 17 16 14 12 10 10 9 8 7 6 5 4 4 3 3 3 3 4 4 3 4 5 7 7 6 5 3 1 1 2 6 5 5 7 7 6 8 14 15 15 14 13 11 9 7 7 7 7 7 5 4 4 5 7 9 11 13 14 15 15 14 13 12 13 15 15 14 14 13 12 11 10 10 9 9 8 7 6 6
24 23 21 20 19 18 17 16 15 13 12 11 10 9 7 6 5 5 5 4 4 4 3 3 2 1 1 0 1 2 2 3 4 4 3 2 2 3 6 5 4 4 8 15 18 16 13 12 12 11 10 9 7 6 7 7 7 6 5 6 8 11 13 15 16 16 15 15 13 14 15 15 15 15 14 13 12 12 11 10 10 10 9 8 8
24 23 22 20 20 19 18 16 15 14 14 13 12 10 8 7 7 7 6 5 5 5 5 5 5 6 5 5 4 2 2 2 1 2 3 3 1 2 4 2 3 4 7 11 15 15 14 14 14 15 15 13 11 9 8 8 9 8 7 7 8 10 12 15 17 17 17 16 15 15 15 15 15 15 15 14 14 13 12 11 11 11 11 10 10
23 23 21 21 20 19 17 15 15 15 15 14 12 11 9 7 7 7 6 6 5 6 7 7 7 7 7 6 5 4 4 4 3 3 2 2 3 3 2 2 4 4 5 5 10 15 16 15 14 15 17 16 13 12 11 10 10 9 9 8 9 10 11 14 17 18 18 18 17 16 15 15 15 15 15 15 15 14 14 13 12 13 12 12 12
22 22 21 20 19 18 17 16 16 16 16 14 13 11 9 7 7 7 6 6 6 6 6 6 6 6 6 5 5 4 4 4 5 5 5 4 3 3 3 5 6 4 4 4 5 9 13 15 14 12 14 15 13 12 11 11 11 10 11 10 9 10 11 13 14 16 18 18 18 17 16 16 15 15 15 15 15 15 15 15 14 14 14 13 12
22 21 21 20 19 18 18 18 18 17 17 16 14 12 9 8 7 7 6 6 7 6 6 5 5 5 4 4 4 3 3 3 5 6 6 6 5 5 3 4 5 4 4 4 4 5 7 11 13 12 13 13 12 11 9 8 9 11 14 13 10 9 10 11 12 13 16 18 19 19 18 18 17 16 16 16 16 15 15 16 16 16 16 15 14
21 21 21 20 19 19 19 20 20 19 18 17 16 13 11 10 9 8 7 7 8 7 6 5 5 4 3 3 3 4 3 4 5 6 7 7 6 7 6 4 3 3 3 3 4 3 4 7 9 10 11 12 12 11 9 7 6 9 12 13 12 10 9 9 10 11 14 16 17 19 20 20 19 18 18 17 17 17 16 16 16 17 17 17 16
22 22 21 21 20 19 20 21 21 20 19 17 15 13 12 12 11 10 9 10 9 8 7 6 5 4 3 3 4 5 5 6 7 7 8 8 9 10 10 8 7 6 6 5 5 3 4 5 5 5 7 11 11 10 9 8 7 9 8 5 7 8 8 9 9 11 12 13 15 17 19 20 20 19 19 19 18 18 18 18 17 17 18 18 18
24 24 22 22 21 21 21 21 22 22 19 16 13 12 11 11 10 10 10 10 10 8 7 6 5 4 3 4 4 5 6 7 8 8 9 10 11 13 13 12 11 10 10 11 10 8 7 6 6 6 6 8 7 6 8 8 8 8 6 2 1 2 4 6 6 8 9 11 13 15 16 18 17 16 17 19 19 19 19 19 19 18 18 19 19
24 25 24 24 23 23 23 23 23 22 20 17 14 12 12 10 9 9 9 9 9 8 6 6 6 5 4 3 3 4 6 7 8 9 10 10 11 12 12 11 11 11 11 13 13 12 10 9 7 6 7 8 7 4 5 7 8 8 4 1 1 1 2 2 2 4 5 5 7 9 11 12 13 13 14 16 16 17 18 19 19 19 20 20 20
26 28 28 27 25 25 25 24 24 23 21 19 16 14 13 12 11 10 9 8 8 8 7 8 7 6 4 3 4 6 7 8 8 9 10 9 9 9 9 9 9 9 9 10 12 13 12 10 8 6 5 7 7 6 5 4 7 9 5 2 2 1 2 1 1 3 3 1 1 1 2 3 6 8 9 10 11 13 16 17 18 19 19 20 20
29 31 30 28 27 26 26 26 25 24 22 20 18 16 15 14 13 13 11 9 9 9 9 9 8 7 5 4 5 8 8 8 9 9 9 8 7 7 6 7 8 8 9 10 11 11 11 11 10 8 7 5 6 6 6 6 5 6 5 4 3 1 1 1 1 2 1 2 1 2 1 2 1 1 3 5 5 7 9 11 13 14 15 17 18
31 32 31 29 29 28 28 27 26 25 24 22 20 18 17 16 15 15 14 12 11 11 10 9 8 7 6 5 7 8 8 7 7 7 7 6 5 5 5 6 8 8 9 11 11 10 10 10 10 9 9 6 5 6 6 5 5 5 3 1 2 1 1 1 1 2 2 2 1 2 3 1 0 2 2 2 2 2 4 6 7 8 10 11 13
31 32 32 31 31 30 29 28 27 26 25 25 23 21 19 18 17 16 15 14 12 11 10 10 9 8 7 6 7 8 8 8 7 6 6 5 6 7 7 9 10 11 11 12 12 11 9 9 9 8 8 7 7 7 6 5 4 4 4 3 2 1 1 1 2 2 2 2 2 2 3 4 5 5 2 1 2 4 5 5 5 6 7 8 9
29 32 33 33 32 30 29 29 29 28 27 27 26 23 21 19 18 18 17 16 13 11 11 12 11 10 9 8 7 8 9 9 9 8 8 9 11 12 12 12 13 13 13 12 12 11 10 9 9 8 8 8 8 7 7 7 6 5 4 4 5 4 2 2 4 4 2 3 2 2 3 6 6 3 2 4 5 6 6 7 7 8 8 9 9
28 31 32 32 32 30 30 31 30 30 29 29 28 26 23 21 20 19 19 18 15 12 12 13 12 11 10 9 9 9 9 9 10 11 11 11 12 12 12 12 12 12 12 12 12 12 11 11 11 10 9 9 9 8 7 8 7 7 6 5 5 5 3 3 4 5 4 3 3 4 5 6 5 5 6 7 7 8 8 8 9 9 8 9 9
25 28 30 32 32 32 32 33 32 32 31 31 29 27 25 24 22 20 20 19 17 14 14 15 14 13 12 11 10 10 10 10 11 10 10 10 10 9 9 10 10 11 11 12 12 12 12 12 12 12 12 12 11 10 9 8 8 8 8 7 6 5 4 3 4 5 4 4 4 5 6 6 8 9 7 7 10 10 7 7 7 7 7 8 9
Wind_Direction
150 151 145 150 148 147 146 146 148 143 139 138 137 132 130 127 125 123 121 123 129 137 140 141 143 145 144 145 145 147 148 149 150 145 145 142 137 136 134 136 138 138 142 140 136 137 136 131 127 127 129 129 130 133 135 134 132 130 131 132 131 130 129 127 126 124 122 121 118 116 112 109 108 107 106 105 103 102 103 100 95 91 90 90 89
149 149 148 152 149 148 147 146 146 143 142 140 138 134 132 129 127 124 121 122 128 134 137 138 141 144 144 145 146 145 143 143 140 135 137 134 134 136 135 138 139 139 141 137 135 137 135 133 130 134 135 128 129 134 134 132 133 135 136 137 135 134 134 132 130 129 128 125 120 116 112 110 109 108 106 103 101 102 102 98 98 95 93 91 87
146 144 148 153 149 148 147 146 145 145 145 141 140 137 135 132 129 125 122 123 127 132 135 138 140 143 145 144 142 140 135 132 129 129 131 126 128 131 132 135 135 137 138 134 135 135 136 135 132 135 134 129 131 133 135 134 135 139 139 140 141 139 137 136 137 135 129 123 119 116 110 108 107 106 104 102 102 100 97 95 97 98 97 95 90
145 141 147 152 149 149 147 147 146 148 147 142 141 139 138 134 131 126 124 125 128 132 135 138 138 140 142 140 138 136 132 129 129 130 131 130 131 130 131 135 138 143 139 138 139 136 138 137 135 136 134 133 134 135 141 138 137 142 142 144 146 141 138 141 143 136 128 126 122 116 111 110 108 106 106 104 103 99 96 94 94 95 95 95 92
143 138 148 151 150 152 149 148 147 149 148 144 142 141 139 136 133 129 127 127 130 133 135 138 138 140 140 139 138 136 135 133 134 135 135 134 134 133 134 137 143 148 145 145 142 139 141 141 141 141 138 137 136 138 142 143 144 146 146 145 145 144 142 146 147 140 138 136 125 115 114 113 110 108 108 107 104 100 98 96 93 92 92 91 90
139 136 146 149 153 155 151 150 148 149 149 146 144 142 140 137 135 131 129 130 132 136 137 138 139 140 139 139 138 137 137 137 136 135 134 132 132 132 132 132 135 138 141 143 141 141 141 143 145 143 142 140 140 140 142 146 148 148 148 145 145 147 147 151 151 146 145 136 120 114 115 114 113 112 111 108 105 102 100 98 96 94 93 90 88
138 137 142 148 154 155 153 152 150 149 149 147 145 143 142 139 137 133 132 132 134 138 139 140 140 140 140 140 140 140 140 139 138 138 138 137 138 136 133 131 131 134 137 139 140 142 141 144 146 144 144 143 143 141 145 148 147 149 146 145 148 148 151 155 153 147 139 127 117 115 115 116 115 114 114 111 107 101 99 99 98 95 93 91 89
138 139 139 146 153 156 156 154 152 149 148 148 147 145 144 141 140 137 135 134 136 139 142 143 143 143 143 144 144 145 145 143 142 142 142 141 142 141 139 135 131 134 138 142 143 143 143 145 147 147 146 144 144 142 146 148 150 152 144 144 149 150 155 154 153 149 135 121 120 117 114 116 114 115 116 112 110 106 102 100 96 95 93 91 90
137 138 140 144 150 157 158 157 153 149 149 149 150 149 146 144 142 141 139 137 138 140 143 144 145 146 146 147 147 150 150 146 144 144 143 141 141 140 142 139 133 132 139 145 143 143 144 144 147 148 147 145 143 144 147 149 152 155 151 151 154 153 156 157 156 149 131 122 121 115 115 114 112 115 117 115 113 109 104 100 96 95 92 90 91
136 137 142 143 149 157 158 158 153 150 152 152 152 152 149 147 146 145 144 140 140 142 144 145 146 148 149 149 150 153 153 150 148 148 146 143 139 135 137 141 138 137 142 145 142 143 144 144 148 148 146 146 145 147 148 146 147 150 153 155 158 157 158 160 155 144 129 125 120 116 119 115 110 114 118 115 109 104 103 103 100 97 93 91 90
134 137 142 143 151 158 158 158 157 155 155 154 154 155 153 150 149 149 148 145 143 143 145 146 148 149 150 151 152 155 155 154 152 151 149 145 139 132 137 145 144 142 145 148 147 143 143 149 152 149 149 153 148 147 145 141 140 142 141 142 151 156 159 157 144 136 130 128 121 120 120 111 109 117 119 112 105 101 100 101 99 97 95 92 90
133 135 138 142 151 158 157 158 160 159 156 155 155 157 156 154 153 152 151 149 146 145 146 147 149 150 151 151 152 155 156 156 154 152 149 144 141 136 140 150 149 148 148 151 152 144 150 162 158 149 151 157 151 149 148 141 139 136 130 130 141 147 153 148 135 132 131 128 125 123 118 107 111 118 115 109 103 98 97 97 96 96 95 93 90
132 133 135 139 149 156 156 156 160 161 157 155 157 158 158 158 157 156 155 153 150 149 148 147 148 151 153 153 154 156 159 161 159 156 153 149 147 140 141 151 151 152 153 154 153 147 156 170 161 152 151 155 155 155 154 146 142 139 133 134 145 151 153 144 133 132 131 131 129 126 120 112 118 116 112 111 103 97 95 96 97 97 96 92 90
134 133 135 137 143 152 154 154 158 161 160 159 160 160 161 163 162 160 158 156 155 152 151 150 149 151 156 157 158 161 162 166 165 161 158 154 151 145 143 150 152 152 157 157 156 155 161 164 162 159 153 155 159 158 156 153 154 163 174 191 199 180 166 152 139 133 132 134 133 130 120 118 124 118 116 114 107 102 96 97 98 97 97 94 91
134 132 134 136 139 148 151 152 157 160 164 164 162 163 165 166 166 164 162 160 158 156 154 153 153 154 158 160 161 164 162 165 169 166 162 158 156 152 147 150 154 153 157 162 162 165 168 166 169 170 162 160 162 160 160 163 178 221 255 229 216 201 176 162 152 140 136 137 137 131 123 124 123 120 121 119 114 106 99 100 98 97 97 94 93
131 132 132 134 137 145 148 152 157 158 162 163 164 167 169 170 167 165 166 165 160 158 158 158 159 159 162 163 163 164 161 163 166 165 163 160 158 155 149 150 156 156 156 163 168 170 175 175 174 174 169 166 165 166 170 182 208 261 291 236 198 201 184 170 163 150 144 140 139 131 125 128 124 126 128 121 119 109 103 102 99 100 98 94 94
129 131 131 132 137 144 149 153 157 158 162 165 169 171 171 170 165 167 170 166 159 162 166 165 165 164 165 166 166 167 164 164 164 165 166 164 161 159 153 150 157 161 159 164 172 173 177 178 174 172 173 173 171 172 180 195 223 271 300 291 188 197 188 178 170 159 152 143 140 133 128 137 135 139 138 128 127 119 114 110 105 104 102 99 97
132 133 132 133 136 141 142 146 152 158 164 168 173 176 175 172 171 175 169 162 163 171 173 169 170 168 166 167 170 173 172 170 168 168 168 168 167 164 160 154 156 162 165 167 172 177 180 179 178 179 179 181 181 181 191 203 221 266 290 290 194 192 188 184 179 169 158 145 141 136 134 148 144 143 145 138 130 124 122 119 113 110 107 104 101
136 137 136 134 134 135 135 140 148 153 159 165 172 177 179 178 179 178 168 166 173 174 174 173 175 173 168 170 174 178 180 177 173 171 171 171 170 168 166 163 159 162 171 176 175 178 183 184 185 187 185 185 188 192 201 207 213 249 273 270 215 186 186 189 191 178 163 154 146 140 144 146 142 144 149 142 130 128 127 122 117 114 112 109 106
140 141 139 133 132 133 133 139 145 148 152 156 166 173 179 182 180 179 176 176 176 171 174 179 180 178 173 174 178 181 186 183 176 177 176 172 172 173 171 169 167 167 172 181 185 183 184 187 189 193 193 189 189 194 200 206 209 233 256 257 225 189 187 194 199 187 173 165 151 145 149 140 139 146 148 141 135 134 129 123 119 115 115 114 110
145 145 140 135 132 133 135 138 141 143 143 146 157 164 172 180 177 179 183 181 177 173 177 184 184 179 175 178 180 183 190 190 182 181 181 177 177 180 179 174 173 176 174 180 189 192 187 186 186 190 195 192 187 189 193 199 206 226 246 250 226 200 193 194 199 195 184 172 155 153 146 137 141 147 143 143 144 139 128 124 122 118 117 116 114
147 146 142 137 134 135 138 140 140 139 138 140 149 155 161 169 170 175 181 182 183 182 182 184 185 180 181 184 182 184 191 193 188 184 183 183 185 186 186 182 179 182 181 179 186 197 196 186 182 187 192 190 186 188 193 196 201 215 229 241 227 207 199 196 197 198 189 177 167 161 141 133 137 142 147 152 152 141 131 131 127 121 120 119 117
152 149 144 143 141 141 144 144 143 141 139 140 144 150 157 161 165 174 178 183 187 187 185 182 183 186 189 189 184 183 191 195 194 188 186 187 191 193 193 192 189 189 188 186 183 193 204 195 189 191 189 187 186 190 196 196 197 208 215 232 231 208 201 200 197 200 196 183 176 165 142 136 141 148 155 161 157 145 143 140 129 125 126 123 121
155 152 149 150 149 147 150 148 146 147 144 145 148 153 161 162 168 178 177 182 191 190 189 187 183 189 193 192 188 184 191 200 199 190 188 192 196 198 199 201 201 200 197 197 192 189 201 204 199 198 193 188 189 194 200 199 196 208 212 221 228 204 197 204 202 203 201 190 185 170 146 140 148 161 157 164 162 155 162 144 132 135 131 125 122
154 153 154 156 157 154 154 153 153 154 152 153 154 159 166 167 172 183 182 185 196 193 195 197 188 191 195 194 192 188 195 203 202 195 195 199 204 205 204 205 205 209 205 204 206 202 202 206 205 202 200 194 190 196 204 205 197 207 217 212 217 201 193 205 207 207 206 200 196 178 155 144 148 167 163 168 176 165 166 151 140 144 135 132 128
156 158 160 160 162 161 161 160 160 161 160 160 158 163 169 171 175 183 186 188 198 198 200 204 198 196 198 196 194 194 200 205 203 202 203 205 210 212 212 210 206 211 213 210 213 215 214 215 211 202 203 201 194 196 204 211 201 202 215 210 209 202 194 201 206 210 212 208 207 191 172 153 147 164 172 177 193 171 170 180 160 157 143 134 133
163 165 165 164 166 167 169 168 167 167 165 166 165 169 173 176 178 181 187 188 194 201 202 204 203 201 199 198 198 200 206 208 207 207 209 209 210 212 213 213 209 213 218 216 219 224 224 223 219 206 202 203 200 197 204 215 209 198 207 209 208 208 201 202 207 210 216 216 215 205 189 172 154 162 178 184 195 180 182 208 181 172 162 99 122
167 169 167 166 169 170 174 176 176 174 169 171 174 178 181 177 177 187 198 192 191 200 202 201 203 203 202 201 203 208 212 214 212 210 212 214 216 215 214 213 209 213 217 217 222 227 229 227 227 220 206 204 206 200 200 214 214 202 200 203 208 213 208 208 210 211 216 220 223 219 204 192 171 168 179 185 192 192 190 189 174 185 201 95 77
169 169 169 168 171 171 174 178 177 177 177 182 187 189 186 179 182 196 198 196 200 198 196 200 203 205 207 207 209 212 218 222 218 218 220 220 225 222 219 219 214 214 214 215 221 223 229 229 228 225 213 209 211 198 190 205 216 212 202 199 201 210 213 211 212 213 217 221 225 229 221 208 193 183 181 185 193 198 190 181 184 188 183 162 90
170 169 170 170 171 171 173 175 174 175 180 186 193 195 193 187 191 199 193 198 210 200 191 197 202 208 212 214 216 218 224 226 223 224 223 226 232 226 222 224 221 218 214 213 216 217 224 226 225 222 215 215 212 192 185 198 216 219 213 207 204 209 214 212 212 216 221 225 227 232 231 223 211 199 193 189 192 201 201 193 197 184 175 182 143
169 169 172 172 170 172 174 175 175 176 181 186 192 196 197 193 195 198 198 204 206 200 199 200 208 214 217 220 220 222 229 227 224 223 217 232 239 230 225 229 228 225 219 218 219 219 219 219 220 216 211 214 214 198 188 199 215 225 226 226 222 221 224 223 222 222 223 228 230 234 236 234 227 213 208 200 192 197 206 202 194 188 190 200 197
172 172 173 173 172 175 177 177 179 182 184 188 191 195 198 195 197 198 204 212 206 202 203 202 210 214 217 223 223 228 237 235 230 230 226 240 248 240 234 232 230 229 222 218 222 226 218 211 216 214 212 214 218 214 202 209 221 228 231 238 239 233 234 235 235 233 228 229 230 234 237 238 238 228 220 214 202 200 205 204 197 201 211 216 300
176 177 175 174 176 178 179 180 184 187 188 190 192 199 202 200 202 201 208 220 216 213 211 213 219 220 222 229 233 231 235 245 240 241 239 250 255 247 241 237 234 232 221 209 210 221 220 216 218 217 219 218 219 227 226 227 232 230 228 236 242 241 241 240 240 241 238 236 234 235 237 239 241 239 232 225 217 211 211 211 203 206 217 223 278
179 180 179 179 179 179 181 184 187 189 188 189 193 200 205 203 201 204 210 214 214 215 215 222 233 237 239 246 255 245 236 260 273 277 224 257 270 271 259 252 252 246 222 207 205 212 214 217 220 216 220 221 221 231 236 240 242 234 233 239 242 244 248 247 246 247 246 244 240 237 237 239 240 239 239 235 229 224 221 223 218 214 220 220 233
182 183 183 182 182 183 185 187 188 188 186 187 190 194 199 197 190 181 176 167 168 179 188 207 227 245 255 259 267 266 263 270 271 325 34 297 295 283 257 248 258 261 221 209 209 210 209 211 216 210 212 224 225 231 240 254 267 252 250 252 249 252 254 253 251 252 250 247 244 240 238 240 240 239 240 240 237 235 229 230 233 230 230 221 219
187 186 185 184 185 186 188 189 186 182 182 182 182 184 184 174 158 141 134 135 143 148 151 157 161 132 98 31 290 285 299 277 261 278 288 323 354 272 260 243 235 237 220 217 213 211 211 213 218 215 214 226 232 237 246 257 270 274 275 268 261 260 258 255 254 254 253 249 247 245 241 240 242 242 242 241 241 244 239 235 237 240 242 236 230
189 188 186 184 186 189 190 188 182 176 175 176 175 175 171 158 144 132 122 120 126 130 133 126 109 103 95 76 74 77 48 41 348 295 250 240 156 244 276 243 208 212 213 220 214 209 210 213 220 221 222 231 241 253 260 262 267 273 281 288 285 271 258 254 254 255 255 253 251 250 248 244 244 245 245 246 245 247 246 241 239 242 247 247 243
188 188 187 185 188 190 188 186 179 173 172 174 175 173 168 163 153 140 128 124 128 127 124 118 110 102 92 78 71 71 62 64 66 67 105 157 182 226 258 194 199 198 191 204 204 206 211 215 220 224 229 234 242 255 263 265 265 271 279 284 291 283 262 251 250 253 255 254 252 252 254 251 247 248 247 248 249 249 249 247 243 243 248 249 247
187 186 186 187 188 187 185 185 180 175 176 176 177 175 171 173 164 149 142 141 144 143 132 121 113 102 90 75 62 62 59 67 77 75 87 98 128 178 199 203 207 198 191 197 196 204 213 218 221 224 230 233 238 247 256 260 259 265 272 273 288 297 277 251 243 248 251 251 250 251 256 256 253 251 250 250 251 252 251 249 246 244 247 251 250
188 186 186 187 186 184 184 185 184 180 180 179 178 179 175 176 173 161 155 154 159 161 150 132 118 102 91 76 62 62 54 64 73 75 88 92 95 111 137 191 203 201 205 212 205 204 209 214 218 218 225 232 236 240 246 253 255 258 264 268 279 295 291 264 244 242 246 248 250 251 254 257 255 254 252 252 252 253 253 251 249 246 246 251 254
190 188 187 187 185 185 186 187 187 186 186 184 181 183 179 176 175 169 163 161 165 166 157 144 128 116 101 83 71 68 66 68 70 74 89 95 93 97 102 121 150 168 169 174 187 193 188 198 210 215 223 231 232 236 240 238 239 244 253 267 271 271 283 278 257 248 249 250 252 252 253 255 256 256 254 253 253 253 253 252 251 249 248 249 253
192 190 189 188 185 185 188 190 190 189 192 191 187 188 183 178 178 175 169 165 166 166 162 154 141 134 116 91 79 73 71 73 73 80 93 97 98 97 97 98 95 102 110 112 118 119 129 156 181 198 217 224 220 223 226 219 219 223 227 264 277 268 273 275 262 255 253 252 253 253 252 253 255 257 257 255 253 254 253 253 253 252 252 250 250
193 192 191 188 186 186 189 191 193 192 193 194 193 190 180 179 184 180 174 168 167 167 165 160 151 145 122 96 81 74 77 79 78 85 98 105 104 99 96 93 91 92 92 93 94 94 100 112 134 156 178 195 194 197 207 211 211 202 199 227 265 284 275 266 256 251 253 253 251 251 251 253 255 254 255 257 255 254 253 253 255 256 256 254 253
193 193 191 187 187 189 190 191 193 192 192 193 193 189 178 178 185 182 179 173 167 166 164 159 154 146 129 101 70 78 89 90 87 90 102 109 105 101 99 94 91 90 87 86 85 85 85 87 104 125 139 153 151 147 177 199 202 188 171 194 153 122 248 259 269 253 246 251 249 249 251 254 256 255 257 260 259 259 259 258 259 261 262 260 258
195 195 192 189 189 193 193 191 192 191 191 192 191 188 180 178 177 177 179 171 162 163 161 158 156 148 133 100 69 93 106 103 100 100 103 107 103 99 97 95 92 87 86 86 84 82 83 82 89 102 116 135 135 122 120 149 191 196 188 168 158 178 219 191 303 238 197 205 264 185 230 256 257 260 263 262 259 263 267 267 265 266 266 265 263
198 197 194 191 193 197 195 192 191 190 190 192 192 190 185 182 180 178 178 174 169 172 171 164 159 153 134 99 88 106 118 113 106 105 105 105 104 99 94 94 90 86 88 90 87 83 83 82 84 92 99 108 121 115 99 99 141 177 190 210 219 182 142 146 237 227 204 281 245 129 62 40 95 263 273 267 259 257 265 267 266 267 266 265 264
199 197 194 192 195 199 196 193 192 190 190 192 193 192 188 189 190 190 192 191 187 185 179 168 160 157 145 115 101 111 123 124 117 110 106 102 100 98 95 94 89 87 87 87 86 82 81 81 80 87 93 92 98 102 91 87 105 110 106 190 219 190 234 247 247 266 288 291 243 243 281 270 342 338 319 284 278 269 275 274 268 268 267 267 265
199 196 194 193 196 199 197 195 194 191 191 193 195 193 189 191 195 199 203 203 201 192 180 173 168 164 157 138 119 115 119 123 126 121 111 102 98 100 99 97 94 91 87 84 83 83 82 81 79 80 84 83 81 83 75 63 64 62 55 47 47 48 293 326 5 327 286 268 280 289 284 287 306 314 308 320 321 305 298 288 276 269 271 276 275
198 197 196 194 197 199 198 197 196 194 193 194 196 196 193 195 198 203 207 210 211 200 185 181 178 172 166 156 141 129 121 117 118 118 114 108 103 102 99 96 92 88 85 83 81 81 80 78 78 78 79 80 77 77 74 64 56 44 31 27 29 24 7 17 22 5 317 278 284 298 320 324 319 309 309 319 316 308 296 286 282 273 269 277 278
199 198 198 195 197 199 199 199 198 196 196 195 197 199 199 200 203 208 212 213 214 206 191 186 184 180 176 168 160 150 137 128 124 121 118 114 109 105 100 95 89 83 79 79 80 80 79 77 78 80 82 82 80 82 80 72 65 56 45 34 22 12 354 347 3 358 326 290 285 287 308 321 316 314 319 315 313 314 301 287 286 278 268 269 270
198 197 198 197 198 200 201 200 200 200 199 197 199 202 203 205 207 211 216 217 217 210 198 192 189 186 184 179 175 168 156 147 142 136 132 128 121 114 105 95 88 81 78 81 85 84 82 81 81 82 81 80 80 81 80 74 68 61 56 52 43 32 20 1 350 342 320 301 298 289 289 293 293 298 304 303 305 305 295 286 287 281 271 267 267